Simultaneous Nadir Overpasses (SNOs) Predictions

Prediction of SNOs between TERRA and METOP-C Satellite Orbit:

Table of predicted SNOs for the next 14.0 days since TLE Epoch: 6/4/2022
Index Date (TERRA) Time (TERRA) Lat,Lon (TERRA) SZA (TERRA ) Date (METOP-C) Time (METOP-C) Lat,Lon (METOP-C) SZA (METOP-C ) Distance(km) Time Diff (sec)
1 06/04/2022 07:06:59 81.17, 114.37 61.06 06/04/2022 07:05:49 81.17, 114.22 61.01 2.51 70
2 06/04/2022 07:56:24 -81.19, -77.71 118.91 06/04/2022 07:56:27 -81.19, -77.64 118.90 1.34 3
3 06/07/2022 02:41:10 81.17,-179.30 60.73 06/07/2022 02:40:11 81.17,-179.30 60.71 0.45 59
4 06/07/2022 03:30:36 -81.19, -11.35 119.23 06/07/2022 03:30:51 -81.19, -11.46 119.24 1.79 15
5 06/09/2022 22:15:21 81.18,-112.60 60.51 06/09/2022 22:14:33 81.18,-112.47 60.50 2.20 48
6 06/09/2022 23:04:47 -81.21, 55.37 119.45 06/09/2022 23:05:13 -81.20, 55.44 119.43 1.30 26
7 06/12/2022 17:49:33 81.18, -46.27 60.28 06/12/2022 17:48:57 81.17, -46.45 60.24 3.02 36
8 06/12/2022 18:38:59 -81.20, 121.72 119.67 06/12/2022 18:39:37 -81.19, 121.54 119.68 3.28 38
9 06/15/2022 13:23:44 81.17, 20.05 60.11 06/15/2022 13:23:19 81.17, 19.92 60.09 2.19 25



Historial Predications of SNOs between TERRA and METOP-C
